TimeAKDT,TemperatureF,Dew PointF,Humidity,Sea Level PressureIn,VisibilityMPH,Wind Direction,Wind SpeedMPH,Gust SpeedMPH,PrecipitationIn,Events,Conditions,WindDirDegrees,DateUTC
12:56 AM,37.9,35.1,89,30.10,8.0,North,15.0,23.0,0.05,Rain,Light Rain,350,2013-05-09 08:56:00
1:56 AM,37.9,35.1,89,30.09,8.0,North,18.4,23.0,0.03,Rain,Light Rain,350,2013-05-09 09:56:00
2:56 AM,37.9,35.1,89,30.09,7.0,North,19.6,23.0,0.04,Rain,Light Rain,350,2013-05-09 10:56:00
3:38 AM,37.4,35.6,93,30.07,8.0,Variable,4.6,20.7,0.04,Rain,Light Rain,0,2013-05-09 11:38:00
3:56 AM,37.9,35.1,89,30.08,9.0,NNW,12.7,18.4,0.05,Rain,Light Rain,340,2013-05-09 11:56:00
4:56 AM,37.9,35.1,89,30.07,9.0,North,12.7,26.5,0.01,Rain,Light Rain,360,2013-05-09 12:56:00
5:21 AM,37.4,35.6,93,30.05,8.0,North,16.1,20.7,0.00,,Overcast,350,2013-05-09 13:21:00
5:56 AM,37.9,35.1,89,30.06,9.0,North,8.1,-,0.00,Rain,Light Rain,10,2013-05-09 13:56:00
6:43 AM,37.4,35.6,93,30.05,6.0,North,8.1,16.1,0.00,Rain,Light Rain,10,2013-05-09 14:43:00
6:56 AM,37.9,35.1,89,30.07,6.0,NNE,10.4,17.3,0.00,Rain,Light Rain,30,2013-05-09 14:56:00
7:56 AM,37.9,35.1,89,30.07,6.0,North,13.8,-,0.00,Rain,Light Rain,350,2013-05-09 15:56:00
8:56 AM,37.9,35.1,89,30.08,6.0,North,13.8,-,0.00,Rain,Light Rain,350,2013-05-09 16:56:00
9:56 AM,37.9,36.0,93,30.09,6.0,North,10.4,-,0.00,Rain,Light Rain,350,2013-05-09 17:56:00
10:56 AM,39.0,35.1,86,30.10,6.0,North,9.2,-,0.02,Rain,Light Rain,350,2013-05-09 18:56:00
12:47 PM,39.2,35.6,87,30.11,6.0,NNE,9.2,17.3,0.02,Rain,Light Rain,30,2013-05-09 20:47:00
12:56 PM,39.0,35.1,86,30.13,6.0,North,6.9,-,0.02,Rain,Light Rain,10,2013-05-09 20:56:00
1:13 PM,39.2,35.6,87,30.11,6.0,NNE,9.2,-,0.02,Rain,Light Rain,20,2013-05-09 21:13:00
1:56 PM,39.0,36.0,89,30.14,6.0,NNE,10.4,16.1,0.06,Rain,Light Rain,20,2013-05-09 21:56:00
2:56 PM,39.0,35.1,86,30.14,6.0,NNE,17.3,24.2,0.02,Rain,Light Rain,30,2013-05-09 22:56:00
3:56 PM,39.0,35.1,86,30.15,7.0,North,9.2,17.3,0.00,Rain,Light Rain,10,2013-05-09 23:56:00
4:35 PM,39.2,35.6,87,30.13,6.0,Variable,4.6,16.1,0.01,Rain,Light Rain,0,2013-05-10 00:35:00
5:04 PM,39.2,35.6,87,30.14,6.0,NNW,8.1,23.0,N/A,Rain,Light Rain,340,2013-05-10 01:04:00
5:56 PM,39.0,36.0,89,30.15,6.0,North,9.2,-,N/A,Rain,Light Rain,350,2013-05-10 01:56:00
6:56 PM,39.0,36.0,89,30.16,-9999.0,Variable,4.6,20.7,0.02,Rain,Light Rain,0,2013-05-10 02:56:00
7:56 PM,39.0,35.1,86,30.17,-9999.0,NNW,11.5,18.4,0.03,Rain,Light Rain,340,2013-05-10 03:56:00
8:56 PM,37.9,35.1,89,30.19,9.0,NNW,8.1,18.4,0.05,Rain,Rain,340,2013-05-10 04:56:00
9:56 PM,39.0,35.1,86,30.21,-9999.0,North,10.4,24.2,0.08,Rain,Rain,350,2013-05-10 05:56:00
10:56 PM,37.9,35.1,89,30.24,-9999.0,NNW,12.7,-,0.06,Rain,Light Rain,330,2013-05-10 06:56:00
11:56 PM,37.9,35.1,89,30.26,-9999.0,NNW,13.8,21.9,0.01,Rain,Light Rain,340,2013-05-10 07:56:00